Location: Mount Cross
(36.6390°N, 79.4878°W)
Time: 20:31:03
(UTC+00:00)

Courier 1B Rocket - Pass Details

Date: 26 March 2023
Orbit: 920 x 1202 km, 28.2° (Epoch: 05 June)

Event Time Altitude Azimuth Distance (km) Brightness Sun altitude
Rises 04:48:18 0° 263° (W) 3,670 - -50.4°
Reaches altitude 10° 04:51:18 10° 254° (WSW) 2,684 - -50.5°
Maximum altitude 04:56:50 31° 194° (SSW) 1,578 - -50.8°
Drops below altitude 10° 05:02:12 10° 134° (SE) 2,603 - -50.9°
Sets 05:05:04 0° 124° (SE) 3,542 - -51.0°
